Location: Newark
(34.9500°N, 139.9667°E)
Time: 02:23:31
(UTC+00:00)

Vanguard 1 Rocket - Pass Details

Date: 09 December 2019
Orbit: 650 x 4226 km, 34.3° (Epoch: 19 January)

Event Time Altitude Azimuth Distance (km) Brightness Sun altitude
Rises 10:43:57 0° 231° (SW) 8,232 12.9 -39.2°
Reaches altitude 10° 10:50:18 10° 228° (SW) 6,887 12.3 -40.5°
Enters shadow 11:08:46 55° 174° (S) 2,980 9.7 -44.3°
Maximum altitude 11:10:08 56° 157° (SSE) 2,830 - -44.6°
Drops below altitude 10° 11:20:34 10° 83° (E) 3,848 - -46.7°
Sets 11:23:02 0° 78° (ENE) 4,508 - -47.2°
